Tracking 30922 objects as of 2-Jul-2025
HD Live streaming from Space Station
objects crossing your sky now

SL-16 DEB

Track SL-16 DEB now!
10-day predictions


NORAD ID: 22337
Int'l Code: 1992-093AA
Perigee: 847.7 km
Apogee: 1,062.4 km
Inclination: 71.3 °
Period: 104.0 minutes
Semi major axis: 7326 km
RCS: 0.6915 m2 (medium)
Launch date: December 25, 1992
Source: Commonwealth of Independent States (former USSR) (CIS)
Launch site: TYURATAM MISSILE AND SPACE COMPLEX (TTMTR)

Note: This is SATELLITE DEBRIS
Your satellite tracking list
Your tracking list is empty




NASA's NSSDC Master Catalog

Two Line Element Set (TLE):
1 22337U 92093AA  25182.71767870  .00000008  00000-0  40022-4 0  9991
2 22337  71.2907 288.0985 0146564  55.3880 306.0950 13.84515005641130
Source of the keplerian elements: AFSPC